#�ϑ�����,���ϕ���,���ϕ���,�ő啗��,�ő啗����������,�ő�u�ԕ���,�ő�u�ԕ�����������
#(�N����),(m/s)   ,(16����),(m/s)   ,(16����)        ,(m/s)       ,(16����)            
2016/4/11 0:01,7.4,16,7.4,16,11.6,16
2016/4/11 0:02,7.4,16,7.5,16,12.1,16
2016/4/11 0:03,7.8,16,7.8,16,13.9,15
2016/4/11 0:04,7.8,16,7.8,16,10.8,16
2016/4/11 0:05,7.6,16,7.7,16,10.3,16
2016/4/11 0:06,7.5,16,7.6,16,10.7,16
2016/4/11 0:07,7.5,16,7.5,16,11.5,15
2016/4/11 0:08,7.5,16,7.5,16,10.3,16
2016/4/11 0:09,7.4,16,7.4,16,12.6,14
2016/4/11 0:10,7.2,16,7.4,16,13.5,16
2016/4/11 0:11,7.1,16,7.3,16,12.1,16
2016/4/11 0:12,7.3,16,7.3,16,15.1,16
2016/4/11 0:13,7,16,7.3,16,11.1,16
2016/4/11 0:14,7.3,16,7.3,16,13.2,16
2016/4/11 0:15,7.4,16,7.4,16,10.8,16
2016/4/11 0:16,7.3,16,7.4,16,11.7,15
2016/4/11 0:17,7.6,16,7.6,16,15.6,16
2016/4/11 0:18,7.9,16,7.9,16,13.2,16
2016/4/11 0:19,7.7,16,8,16,11.7,15
2016/4/11 0:20,7.5,16,7.7,16,8.4,15
2016/4/11 0:21,7.3,16,7.5,16,8.9,15
2016/4/11 0:22,7.1,16,7.3,16,9.3,15
2016/4/11 0:23,7.1,16,7.2,16,10.9,15
2016/4/11 0:24,6.7,16,7.1,16,8.6,16
2016/4/11 0:25,6.5,16,6.7,16,8.3,16
2016/4/11 0:26,6.2,16,6.5,16,7.1,15
2016/4/11 0:27,5.8,16,6.2,16,8.6,16
2016/4/11 0:28,5.5,16,5.8,16,7.5,14
2016/4/11 0:29,5.6,15,5.6,16,12.1,15
2016/4/11 0:30,5.5,16,5.6,16,7.2,16
2016/4/11 0:31,5.7,16,5.7,16,9.8,16
2016/4/11 0:32,6,16,6,16,13.6,15
2016/4/11 0:33,5.9,16,5.9,16,11.4,15
2016/4/11 0:34,6.1,16,6.1,16,13,14
2016/4/11 0:35,6,15,6.2,16,9.2,15
2016/4/11 0:36,6,15,6,16,8.3,15
2016/4/11 0:37,6,15,6.1,16,9.9,14
2016/4/11 0:38,6.2,15,6.2,16,10.9,15
2016/4/11 0:39,6.3,15,6.3,15,13.5,15
2016/4/11 0:40,6.7,15,6.7,15,13.5,15
2016/4/11 0:41,6.4,15,6.7,15,7.9,16
2016/4/11 0:42,6.1,15,6.4,15,10,15
2016/4/11 0:43,6.1,15,6.1,15,8.6,14
2016/4/11 0:44,6.2,15,6.3,15,15.4,15
2016/4/11 0:45,6.4,15,6.4,15,9.8,1
2016/4/11 0:46,6.5,16,6.5,15,8.4,15
2016/4/11 0:47,6.6,16,6.6,15,11.8,16
2016/4/11 0:48,6.7,15,6.7,15,10.5,15
2016/4/11 0:49,6.4,15,6.7,15,8.7,16
2016/4/11 0:50,6.1,15,6.3,15,8.4,16
2016/4/11 0:51,6.2,16,6.2,15,6.7,16
2016/4/11 0:52,6,16,6.2,15,6.3,1
2016/4/11 0:53,6.1,15,6.1,15,9.4,15
2016/4/11 0:54,5.8,15,6,15,9.7,15
2016/4/11 0:55,5.7,15,5.8,15,7.7,16
2016/4/11 0:56,5.6,16,5.8,15,6.8,16
2016/4/11 0:57,5.3,16,5.6,15,6,16
2016/4/11 0:58,4.9,16,5.2,15,6.3,15
2016/4/11 0:59,4.8,16,4.9,15,6,1
2016/4/11 1:00,4.7,16,4.8,15,5.8,14
2016/4/11 1:01,4.5,16,4.7,16,6,1
2016/4/11 1:02,4.5,16,4.6,15,7.1,16
2016/4/11 1:03,4.3,16,4.5,15,6.9,16
2016/4/11 1:04,4,16,4.3,15,4.3,16
2016/4/11 1:05,3.7,16,3.9,15,5.1,16
2016/4/11 1:06,3.5,16,3.7,16,3.5,16
2016/4/11 1:07,3.3,16,3.5,16,3.3,15
2016/4/11 1:08,3.2,16,3.3,16,3.8,14
2016/4/11 1:09,3,16,3.2,16,3.7,1
2016/4/11 1:10,2.9,16,3,16,6.1,1
2016/4/11 1:11,2.8,16,2.9,16,5.8,1
2016/4/11 1:12,2.6,16,2.7,16,4.4,16
2016/4/11 1:13,2.5,16,2.6,16,6.1,16
2016/4/11 1:14,2.6,16,2.6,16,6.2,16
2016/4/11 1:15,2.7,16,2.7,16,6.1,16
2016/4/11 1:16,2.8,16,2.8,16,7.9,15
2016/4/11 1:17,3,16,3,16,9.2,16
2016/4/11 1:18,3.2,1,3.2,16,9.7,16
2016/4/11 1:19,3.5,1,3.5,1,9.4,1
2016/4/11 1:20,4,16,4,16,13.1,16
2016/4/11 1:21,4.5,16,4.5,16,15.4,16
2016/4/11 1:22,5,16,5,16,12.4,1
2016/4/11 1:23,5.5,16,5.5,16,13.9,16
2016/4/11 1:24,5.8,16,5.8,16,13.4,16
2016/4/11 1:25,6,16,6.1,16,11,1
2016/4/11 1:26,6.2,16,6.2,16,8.6,15
2016/4/11 1:27,6.4,16,6.4,16,11.5,1
2016/4/11 1:28,6.6,16,6.6,16,10.8,16
2016/4/11 1:29,6.7,16,6.7,16,11.5,2
2016/4/11 1:30,6.8,16,6.9,16,11.9,16
2016/4/11 1:31,6.8,1,6.9,16,12.1,1
2016/4/11 1:32,7,16,7,16,14.5,16
2016/4/11 1:33,6.8,1,7,16,16,16
2016/4/11 1:34,6.9,16,6.9,16,14.1,15
2016/4/11 1:35,7,16,7,16,10.5,16
2016/4/11 1:36,7.3,16,7.3,16,12.5,16
2016/4/11 1:37,7.4,16,7.4,16,13.5,16
2016/4/11 1:38,7.5,16,7.6,16,14.5,1
2016/4/11 1:39,7.7,16,7.7,16,12.6,1
2016/4/11 1:40,7.7,16,7.8,16,9.9,1
2016/4/11 1:41,7.9,16,7.9,16,12.8,1
2016/4/11 1:42,7.8,16,7.9,16,12.8,16
2016/4/11 1:43,7.9,16,7.9,16,12.4,16
2016/4/11 1:44,7.9,16,8,16,11.3,16
2016/4/11 1:45,8,16,8.1,16,11.6,16
2016/4/11 1:46,8,16,8,16,11.9,16
2016/4/11 1:47,8.1,16,8.1,16,12.3,1
2016/4/11 1:48,7.9,16,8,16,11.3,15
2016/4/11 1:49,7.6,16,7.9,16,7.6,16
2016/4/11 1:50,7.4,16,7.6,16,9.1,1
2016/4/11 1:51,6.9,16,7.3,16,6.7,15
2016/4/11 1:52,6.8,16,6.9,16,10.1,16
2016/4/11 1:53,6.4,16,6.7,16,9.1,16
2016/4/11 1:54,6.4,16,6.5,16,13,1
2016/4/11 1:55,6.4,16,6.5,16,12.4,16
2016/4/11 1:56,6.5,16,6.5,16,13.1,15
2016/4/11 1:57,6.4,16,6.5,16,12.1,15
2016/4/11 1:58,6.6,16,6.6,16,14.5,15
2016/4/11 1:59,7.2,16,7.2,16,16.9,16
2016/4/11 2:00,7.4,16,7.4,16,16.2,16
2016/4/11 2:01,7.9,16,7.9,16,12.8,16
2016/4/11 2:02,7.9,16,7.9,16,9.3,15
2016/4/11 2:03,7.9,16,8,16,10.9,1
2016/4/11 2:04,7.8,16,7.9,16,11.9,1
2016/4/11 2:05,8.1,16,8.1,16,17.5,16
2016/4/11 2:06,8.2,16,8.2,16,15.8,16
2016/4/11 2:07,8.2,16,8.3,16,10.7,1
2016/4/11 2:08,8.2,16,8.2,16,12.8,1
2016/4/11 2:09,7.8,16,8.2,16,12.3,16
2016/4/11 2:10,7.6,16,7.8,16,11.6,16
2016/4/11 2:11,7.5,16,7.6,16,13,1
2016/4/11 2:12,7.8,16,7.8,16,13.8,16
2016/4/11 2:13,8.1,16,8.1,16,14.8,14
2016/4/11 2:14,8.4,16,8.5,16,15.9,15
2016/4/11 2:15,8.2,16,8.4,16,15.3,1
2016/4/11 2:16,8.2,16,8.3,16,15.3,16
2016/4/11 2:17,8.1,16,8.2,16,11.4,16
2016/4/11 2:18,7.6,16,8.1,16,8.5,2
2016/4/11 2:19,7.5,16,7.7,16,10.5,16
2016/4/11 2:20,7.4,16,7.4,16,10,16
2016/4/11 2:21,7,16,7.5,16,6.8,15
2016/4/11 2:22,6.4,16,7,16,7.6,15
2016/4/11 2:23,5.7,16,6.4,16,4.7,2
2016/4/11 2:24,5.2,16,5.6,16,7.4,16
2016/4/11 2:25,4.5,16,5.1,16,5.8,15
2016/4/11 2:26,4.1,1,4.4,16,9.1,1
2016/4/11 2:27,4.1,1,4.1,16,10.6,16
2016/4/11 2:28,4.1,1,4.2,16,7.8,1
2016/4/11 2:29,3.9,1,4.1,16,5.8,1
2016/4/11 2:30,3.8,1,3.9,16,7.9,16
2016/4/11 2:31,3.8,1,3.8,16,8.1,16
2016/4/11 2:32,3.8,1,3.9,16,6.7,15
2016/4/11 2:33,3.9,1,4,16,5.5,2
2016/4/11 2:34,3.8,1,3.9,16,4.7,1
2016/4/11 2:35,3.8,1,3.8,16,6.3,2
2016/4/11 2:36,3.6,1,3.8,1,5.4,16
2016/4/11 2:37,3.2,1,3.6,1,4.3,3
2016/4/11 2:38,3.1,1,3.2,1,4.8,4
2016/4/11 2:39,3.2,1,3.2,1,9.8,16
2016/4/11 2:40,3.3,1,3.3,1,10.7,15
2016/4/11 2:41,3.2,1,3.3,1,6.4,3
2016/4/11 2:42,3.2,1,3.3,1,7.9,1
2016/4/11 2:43,3.3,1,3.3,1,7.1,16
2016/4/11 2:44,3.5,1,3.5,1,7.2,2
2016/4/11 2:45,3.7,1,3.7,1,10,1
2016/4/11 2:46,3.7,1,3.8,1,7.9,15
2016/4/11 2:47,4,1,4,1,9.2,1
2016/4/11 2:48,4.4,1,4.4,1,13.1,1
2016/4/11 2:49,4.4,1,4.5,1,11.3,3
2016/4/11 2:50,4.2,1,4.4,1,9.8,16
2016/4/11 2:51,4.3,16,4.3,1,7.7,13
2016/4/11 2:52,4.2,16,4.3,1,5.4,16
2016/4/11 2:53,4.2,16,4.2,1,5.7,15
2016/4/11 2:54,4.4,16,4.4,1,11.8,16
2016/4/11 2:55,4.3,16,4.4,1,13.5,16
2016/4/11 2:56,4.5,16,4.5,1,9.9,16
2016/4/11 2:57,4.3,16,4.5,1,6.9,16
2016/4/11 2:58,3.9,16,4.3,1,7.5,15
2016/4/11 2:59,3.7,16,3.9,16,5.6,1
2016/4/11 3:00,3.6,16,3.6,16,4.8,15
2016/4/11 3:01,3.6,16,3.6,16,9.4,16
2016/4/11 3:02,3.9,16,3.9,16,9,1
2016/4/11 3:03,4.2,16,4.3,16,11.8,16
2016/4/11 3:04,3.9,16,4.2,16,6.4,16
2016/4/11 3:05,3.9,16,3.9,16,11.4,1
2016/4/11 3:06,3.9,16,4,16,11.3,15
2016/4/11 3:07,3.9,16,3.9,16,6.4,15
2016/4/11 3:08,3.9,16,4,16,7.7,1
2016/4/11 3:09,4.1,16,4.1,16,6.7,16
2016/4/11 3:10,4,16,4.1,16,2.6,16
2016/4/11 3:11,4,16,4,16,4.7,13
2016/4/11 3:12,3.7,16,3.9,16,6.5,1
2016/4/11 3:13,3.7,16,3.7,16,12.4,16
2016/4/11 3:14,4.2,16,4.2,16,15.4,16
2016/4/11 3:15,4.2,16,4.3,16,11.6,16
2016/4/11 3:16,4.3,16,4.3,16,13.5,1
2016/4/11 3:17,4.8,16,4.8,16,15,16
2016/4/11 3:18,5.1,16,5.1,16,10.9,2
2016/4/11 3:19,5.3,16,5.3,16,11.9,16
2016/4/11 3:20,5.7,16,5.7,16,10.1,2
2016/4/11 3:21,6.3,16,6.3,16,12.4,1
2016/4/11 3:22,6.6,1,6.6,1,10.9,1
2016/4/11 3:23,6.5,16,6.6,1,9.5,16
2016/4/11 3:24,6.2,16,6.5,1,14.3,3
2016/4/11 3:25,6.4,1,6.4,1,13.5,1
2016/4/11 3:26,6.3,1,6.4,1,10.7,1
2016/4/11 3:27,6.1,1,6.3,1,12.1,4
2016/4/11 3:28,6,1,6,1,12.6,2
2016/4/11 3:29,5.7,1,6,1,13.2,1
2016/4/11 3:30,5.6,1,5.7,1,8.6,2
2016/4/11 3:31,5.4,1,5.6,1,12.5,3
2016/4/11 3:32,5.4,1,5.5,1,15.8,3
2016/4/11 3:33,5.5,1,5.5,16,10.7,3
2016/4/11 3:34,5.3,2,5.4,1,8.4,3
2016/4/11 3:35,5.2,2,5.2,1,12.3,3
2016/4/11 3:36,5.2,2,5.3,1,10.6,1
2016/4/11 3:37,5.2,2,5.3,1,9.4,3
2016/4/11 3:38,5.2,2,5.3,1,14.9,2
2016/4/11 3:39,5.5,2,5.5,1,13.8,3
2016/4/11 3:40,5.7,2,5.7,2,13.8,2
2016/4/11 3:41,5.6,2,5.8,2,12.1,1
2016/4/11 3:42,5.6,2,5.6,2,11.5,3
2016/4/11 3:43,5.9,2,5.9,2,13.1,2
2016/4/11 3:44,6.1,2,6.1,2,11.1,2
2016/4/11 3:45,6.3,2,6.3,2,13.5,3
2016/4/11 3:46,6.4,2,6.4,2,14.3,3
2016/4/11 3:47,6.3,2,6.4,2,9.4,5
2016/4/11 3:48,6.2,2,6.2,2,8.7,3
2016/4/11 3:49,6.3,2,6.4,2,12.5,3
2016/4/11 3:50,6.4,2,6.5,2,15,1
2016/4/11 3:51,6.3,2,6.4,2,11.9,2
2016/4/11 3:52,6.4,2,6.4,2,11.4,3
2016/4/11 3:53,6.1,2,6.3,2,9.7,2
2016/4/11 3:54,6.1,2,6.2,2,10,2
2016/4/11 3:55,5.7,2,6.1,2,7.8,2
2016/4/11 3:56,5.6,2,5.6,2,11.9,3
2016/4/11 3:57,5.7,2,5.7,2,8.3,15
2016/4/11 3:58,5.8,2,5.8,2,11.5,3
2016/4/11 3:59,5.7,2,5.8,2,10.6,4
2016/4/11 4:00,5.6,2,5.7,2,11.3,1
2016/4/11 4:01,5.5,2,5.6,2,9.2,1
2016/4/11 4:02,5.4,2,5.6,2,9.9,3
2016/4/11 4:03,5.5,2,5.5,2,12.3,3
2016/4/11 4:04,5.4,2,5.4,2,9.3,4
2016/4/11 4:05,5.6,2,5.6,2,8.3,3
2016/4/11 4:06,5.4,2,5.6,2,7.2,1
2016/4/11 4:07,5.2,2,5.4,2,6.3,1
2016/4/11 4:08,5,2,5.2,2,6.9,4
2016/4/11 4:09,4.6,2,4.9,2,6,1
2016/4/11 4:10,4.4,2,4.5,2,9.4,1
2016/4/11 4:11,4.5,2,4.5,2,9,1
2016/4/11 4:12,4.6,2,4.6,2,11.1,3
2016/4/11 4:13,4.3,2,4.7,2,10.7,2
2016/4/11 4:14,4.3,2,4.4,2,12.2,2
2016/4/11 4:15,4.3,2,4.4,2,11.7,1
2016/4/11 4:16,4.1,2,4.3,2,11,1
2016/4/11 4:17,4.2,2,4.2,2,5.1,1
2016/4/11 4:18,4.1,2,4.2,2,4.9,4
2016/4/11 4:19,4,2,4.1,2,3,3
2016/4/11 4:20,3.7,2,4,2,2.9,16
2016/4/11 4:21,3.5,2,3.7,2,6.1,3
2016/4/11 4:22,3.4,2,3.5,2,10.2,2
2016/4/11 4:23,3.3,2,3.3,2,4.5,1
2016/4/11 4:24,2.9,2,3.2,2,2.2,3
2016/4/11 4:25,2.6,2,2.9,2,3.5,5
2016/4/11 4:26,2.5,2,2.5,2,3.5,16
2016/4/11 4:27,2.3,2,2.5,2,2.1,4
2016/4/11 4:28,2.5,3,2.5,2,7.9,3
2016/4/11 4:29,2.7,3,2.7,2,6.1,7
2016/4/11 4:30,3.2,3,3.2,2,9.1,3
2016/4/11 4:31,3.3,3,3.3,2,10,2
2016/4/11 4:32,3.3,3,3.4,3,8.4,1
2016/4/11 4:33,3.3,3,3.4,3,7,3
2016/4/11 4:34,3.5,3,3.5,3,5.7,1
2016/4/11 4:35,3.5,3,3.5,3,5.8,3
2016/4/11 4:36,3.6,3,3.6,3,5.7,5
2016/4/11 4:37,3.9,3,3.9,3,10.2,2
2016/4/11 4:38,3.8,3,3.9,3,7,1
2016/4/11 4:39,3.9,2,3.9,3,6.3,1
2016/4/11 4:40,3.5,2,3.8,3,7.2,16
2016/4/11 4:41,3.2,2,3.5,3,3.5,3
2016/4/11 4:42,3,2,3.2,3,3.9,4
2016/4/11 4:43,2.8,2,3,3,3.5,10
2016/4/11 4:44,3,3,3,3,6.9,4
2016/4/11 4:45,3.1,3,3.2,3,8.2,3
2016/4/11 4:46,3.1,2,3.1,3,5.8,2
2016/4/11 4:47,2.6,2,3.1,3,4.1,2
2016/4/11 4:48,2.4,3,2.6,3,3.1,6
2016/4/11 4:49,2.2,3,2.3,2,5.2,3
2016/4/11 4:50,2,4,2.1,2,2.6,13
2016/4/11 4:51,2.1,4,2.1,2,5.2,13
2016/4/11 4:52,2.1,3,2.1,3,4.2,15
2016/4/11 4:53,2.2,2,2.2,3,6.3,16
2016/4/11 4:54,2,1,2.1,3,4.7,3
2016/4/11 4:55,1.8,16,1.9,3,5,8
2016/4/11 4:56,1.8,15,1.8,2,5.4,16
2016/4/11 4:57,2.1,16,2.1,2,7.7,3
2016/4/11 4:58,2.3,1,2.3,3,6.4,2
2016/4/11 4:59,2.4,1,2.4,1,5.5,5
2016/4/11 5:00,2.6,2,2.6,2,8.6,2
2016/4/11 5:01,3,2,3,2,11.8,2
2016/4/11 5:02,3.3,2,3.3,2,8.4,16
2016/4/11 5:03,3.3,2,3.4,2,4.1,16
2016/4/11 5:04,3.4,2,3.4,2,6,1
2016/4/11 5:05,3.6,2,3.6,2,7.1,1
2016/4/11 5:06,3.7,2,3.7,2,8.1,1
2016/4/11 5:07,3.9,2,3.9,2,8.7,2
2016/4/11 5:08,4.4,2,4.4,2,11.8,3
2016/4/11 5:09,4.6,2,4.6,2,12.4,2
2016/4/11 5:10,4.4,2,4.5,2,3.6,15
2016/4/11 5:11,4.1,2,4.3,2,8.9,3
2016/4/11 5:12,4,2,4.2,2,8.2,4
2016/4/11 5:13,4.3,2,4.3,2,11.1,2
2016/4/11 5:14,4.4,2,4.4,2,5.8,14
2016/4/11 5:15,4.5,2,4.5,2,9.5,1
2016/4/11 5:16,4.7,2,4.7,2,11,4
2016/4/11 5:17,4.7,2,4.8,2,9.4,16
2016/4/11 5:18,4.6,2,4.7,2,11.8,1
2016/4/11 5:19,4.5,2,4.6,2,7.1,1
2016/4/11 5:20,4.6,1,4.6,2,5.4,13
2016/4/11 5:21,4.6,1,4.6,2,8.7,16
2016/4/11 5:22,4.7,1,4.7,2,12.1,1
2016/4/11 5:23,4.9,1,4.9,1,10.2,1
2016/4/11 5:24,5.1,1,5.2,1,12.6,16
2016/4/11 5:25,5.1,1,5.1,1,11,2
2016/4/11 5:26,5.1,1,5.2,1,9,1
2016/4/11 5:27,4.8,1,5,1,5,1
2016/4/11 5:28,4.8,16,4.9,1,11,2
2016/4/11 5:29,4.7,16,4.8,1,7.4,16
2016/4/11 5:30,5.1,1,5.1,1,8.7,16
2016/4/11 5:31,5.1,16,5.2,1,7.8,15
2016/4/11 5:32,5.1,16,5.1,1,9.3,15
2016/4/11 5:33,4.8,16,5.1,1,4.9,16
2016/4/11 5:34,4.4,16,4.7,1,6.1,2
2016/4/11 5:35,4.4,16,4.4,1,9.9,16
2016/4/11 5:36,4.2,16,4.4,1,4.3,3
2016/4/11 5:37,4.4,16,4.4,1,8.5,15
2016/4/11 5:38,4.5,16,4.5,1,13.5,15
2016/4/11 5:39,4.6,16,4.6,1,10,1
2016/4/11 5:40,4.5,16,4.6,1,11.3,15
2016/4/11 5:41,4.7,16,4.7,16,13.9,15
2016/4/11 5:42,4.8,16,4.8,16,12.4,2
2016/4/11 5:43,5.2,16,5.2,16,12.4,2
2016/4/11 5:44,5.8,16,5.8,16,16.8,16
2016/4/11 5:45,5.8,16,5.8,16,13.9,1
2016/4/11 5:46,6.3,16,6.3,16,14.9,16
2016/4/11 5:47,6.3,16,6.5,16,11,16
2016/4/11 5:48,6.3,16,6.3,16,13.3,2
2016/4/11 5:49,6.5,16,6.5,16,9.3,16
2016/4/11 5:50,6.8,16,6.8,16,13.6,16
2016/4/11 5:51,6.7,16,6.9,16,9.9,2
2016/4/11 5:52,6.5,16,6.7,16,9.1,1
2016/4/11 5:53,6.5,16,6.6,16,11.7,14
2016/4/11 5:54,6.6,16,6.7,16,18.3,1
2016/4/11 5:55,6.8,16,6.8,16,14.5,2
2016/4/11 5:56,6.8,16,6.9,16,12.5,16
2016/4/11 5:57,6.9,16,6.9,16,9.8,1
2016/4/11 5:58,7,16,7,16,14.7,16
2016/4/11 5:59,7,16,7,16,10.5,1
2016/4/11 6:00,7,16,7.1,16,13,1
2016/4/11 6:01,7,16,7.1,16,10.9,16
2016/4/11 6:02,7,16,7.1,16,11.4,16
2016/4/11 6:03,6.9,16,7,16,6.2,16
2016/4/11 6:04,6.6,16,6.9,16,11,16
2016/4/11 6:05,6.3,16,6.6,16,11.3,16
2016/4/11 6:06,6,16,6.2,16,10.6,15
2016/4/11 6:07,5.9,16,5.9,16,9.7,1
2016/4/11 6:08,5.9,16,6.1,16,12.7,16
2016/4/11 6:09,5.7,16,5.9,16,10.8,1
2016/4/11 6:10,5.3,16,5.7,16,6.8,16
2016/4/11 6:11,5.2,16,5.2,16,9.5,1
2016/4/11 6:12,5.1,16,5.2,16,9.8,16
2016/4/11 6:13,5.1,16,5.1,16,8.9,1
2016/4/11 6:14,4.7,16,5,16,5.7,15
2016/4/11 6:15,4.8,16,4.8,16,13.4,1
2016/4/11 6:16,5.1,16,5.1,16,15.2,15
2016/4/11 6:17,5.2,16,5.2,16,8.3,16
2016/4/11 6:18,4.8,16,5.2,16,8.9,15
2016/4/11 6:19,5.1,16,5.1,16,14.8,15
2016/4/11 6:20,5.2,16,5.2,16,8.6,15
2016/4/11 6:21,5.4,16,5.4,16,9.1,16
2016/4/11 6:22,5.3,16,5.5,16,10.3,1
2016/4/11 6:23,5.4,16,5.4,16,8.3,16
2016/4/11 6:24,5.8,16,5.8,16,8.7,15
2016/4/11 6:25,5.7,16,5.9,16,7.6,1
2016/4/11 6:26,5.5,16,5.6,16,12.7,15
2016/4/11 6:27,5.6,16,5.7,16,14.3,1
2016/4/11 6:28,5.6,16,5.6,16,7.1,16
2016/4/11 6:29,5.1,16,5.5,16,8.1,16
2016/4/11 6:30,5.4,16,5.4,16,11.5,16
2016/4/11 6:31,5.4,16,5.5,16,8.6,15
2016/4/11 6:32,5.3,16,5.4,16,6.4,14
2016/4/11 6:33,5.2,16,5.3,16,7.4,2
2016/4/11 6:34,4.9,16,5.1,16,7.1,1
2016/4/11 6:35,4.7,16,4.9,16,4.2,16
2016/4/11 6:36,4.4,16,4.7,16,3.6,2
2016/4/11 6:37,3.8,16,4.3,16,3.9,15
2016/4/11 6:38,3.6,16,3.8,16,2.9,1
2016/4/11 6:39,3.7,16,3.7,16,9.5,1
2016/4/11 6:40,3.3,16,3.7,16,7.1,1
2016/4/11 6:41,3,16,3.3,16,5.2,2
2016/4/11 6:42,3.2,1,3.2,16,8.9,2
2016/4/11 6:43,3,1,3.2,16,5.2,2
2016/4/11 6:44,3.1,1,3.1,16,7.9,1
2016/4/11 6:45,3.3,1,3.3,16,9.9,4
2016/4/11 6:46,3.5,1,3.5,16,8.1,1
2016/4/11 6:47,3.6,1,3.6,16,4.1,1
2016/4/11 6:48,3.6,2,3.6,16,4.7,16
2016/4/11 6:49,3.3,1,3.6,16,2.7,15
2016/4/11 6:50,3.2,1,3.2,1,3.7,2
2016/4/11 6:51,3.3,1,3.3,1,6,16
2016/4/11 6:52,3.2,1,3.2,1,7,14
2016/4/11 6:53,3.2,1,3.3,1,5.5,15
2016/4/11 6:54,2.9,1,3.1,1,3.9,1
2016/4/11 6:55,2.8,16,2.9,1,6,16
2016/4/11 6:56,2.7,16,2.8,1,4.7,16
2016/4/11 6:57,2.7,16,2.8,1,5.4,1
2016/4/11 6:58,2.7,16,2.7,2,3.6,16
2016/4/11 6:59,2.8,16,2.8,1,3.7,15
2016/4/11 7:00,3,15,3,1,6,14
2016/4/11 7:01,2.9,15,3,1,4.5,12
2016/4/11 7:02,2.6,15,2.8,1,3.2,16
2016/4/11 7:03,2.5,16,2.6,1,1.3,5
2016/4/11 7:04,2.4,16,2.5,15,1.6,5
2016/4/11 7:05,2.2,15,2.4,15,2.1,12
2016/4/11 7:06,2,15,2.2,15,2.5,14
2016/4/11 7:07,2.1,15,2.1,15,6.7,15
2016/4/11 7:08,2.4,15,2.4,15,6.5,14
2016/4/11 7:09,2.4,15,2.5,15,6,16
2016/4/11 7:10,2.2,15,2.4,15,3.3,14
2016/4/11 7:11,2.1,15,2.2,15,3.7,14
2016/4/11 7:12,2,15,2.1,15,3.8,16
2016/4/11 7:13,2.2,14,2.2,16,4.2,13
2016/4/11 7:14,2.5,14,2.5,15,4.3,13
2016/4/11 7:15,2.6,14,2.6,14,3.3,13
2016/4/11 7:16,2.6,14,2.6,14,2,11
2016/4/11 7:17,2.2,14,2.6,14,3,13
2016/4/11 7:18,2,13,2.2,14,4.8,10
2016/4/11 7:19,1.9,13,2,14,2.2,12
2016/4/11 7:20,1.8,13,1.9,14,3.6,9
2016/4/11 7:21,1.8,12,1.8,14,3.7,9
2016/4/11 7:22,1.6,11,1.8,14,0.8,9
2016/4/11 7:23,1.5,11,1.6,14,2.2,16
2016/4/11 7:24,1.4,11,1.5,14,3.3,15
2016/4/11 7:25,1.2,11,1.3,14,1.5,15
2016/4/11 7:26,1.2,11,1.2,14,2,11
2016/4/11 7:27,1.2,11,1.2,14,4.5,8
2016/4/11 7:28,1.1,11,1.2,13,3.5,8
2016/4/11 7:29,1.1,11,1.1,13,1.6,3
2016/4/11 7:30,1.1,11,1.2,12,2.7,3
2016/4/11 7:31,1,12,1.1,12,1,15
2016/4/11 7:32,1.1,13,1.1,11,2,9
2016/4/11 7:33,1.1,11,1.2,11,2.7,8
2016/4/11 7:34,1,10,1.1,11,2.6,9
2016/4/11 7:35,1.2,10,1.2,11,4.2,9
2016/4/11 7:36,1.3,10,1.3,10,3.6,7
2016/4/11 7:37,1.4,9,1.4,9,3.3,8
2016/4/11 7:38,1.4,9,1.4,9,3.6,9
2016/4/11 7:39,1.5,10,1.5,9,3.5,9
2016/4/11 7:40,1.5,9,1.5,9,3.8,9
2016/4/11 7:41,1.7,10,1.7,9,3.8,8
2016/4/11 7:42,1.8,9,1.8,9,3.2,9
2016/4/11 7:43,1.8,10,1.8,9,2.7,13
2016/4/11 7:44,1.8,10,1.9,10,3.1,11
2016/4/11 7:45,1.7,10,1.8,10,1.8,9
2016/4/11 7:46,1.7,10,1.7,10,1.8,9
2016/4/11 7:47,1.6,9,1.6,10,2.2,5
2016/4/11 7:48,1.6,9,1.6,10,1.8,7
2016/4/11 7:49,1.4,9,1.6,10,1,9
2016/4/11 7:50,1.3,8,1.4,10,1.9,6
2016/4/11 7:51,1.2,8,1.3,10,1.1,9
2016/4/11 7:52,1.1,8,1.1,10,1.9,10
2016/4/11 7:53,1,8,1,10,2.2,10
2016/4/11 7:54,0.9,7,1,10,2.2,3
2016/4/11 7:55,1.1,7,1.1,10,3.9,15
2016/4/11 7:56,1.1,6,1.1,10,3.9,16
2016/4/11 7:57,1.3,4,1.3,9,6.3,16
2016/4/11 7:58,1.5,1,1.5,9,5.5,14
2016/4/11 7:59,1.7,16,1.7,16,5.2,16
2016/4/11 8:00,2,15,2,15,7.5,15
2016/4/11 8:01,2.5,15,2.5,15,7.8,15
2016/4/11 8:02,2.7,16,2.7,15,5.1,15
2016/4/11 8:03,3,15,3,16,9.3,15
2016/4/11 8:04,3.6,15,3.6,15,10,15
2016/4/11 8:05,3.9,15,3.9,15,9.9,15
2016/4/11 8:06,4,15,4,15,5.5,15
2016/4/11 8:07,4,15,4,15,6.4,16
2016/4/11 8:08,3.9,15,4,15,3.6,16
2016/4/11 8:09,4,15,4,15,4.4,15
2016/4/11 8:10,4,15,4.1,15,8.5,16
2016/4/11 8:11,4.1,15,4.1,15,10.3,15
2016/4/11 8:12,4.3,15,4.3,15,9.5,15
2016/4/11 8:13,4.1,15,4.3,15,3.3,15
2016/4/11 8:14,3.5,15,4,15,2.5,12
2016/4/11 8:15,3.2,15,3.5,15,3.6,15
2016/4/11 8:16,3.1,15,3.2,15,4.7,15
2016/4/11 8:17,3.1,15,3.2,15,7,15
2016/4/11 8:18,3.1,15,3.1,15,6.2,15
2016/4/11 8:19,3.3,15,3.3,15,7.5,14
2016/4/11 8:20,3.1,15,3.3,15,4.5,15
2016/4/11 8:21,2.7,15,3.1,15,3.7,15
2016/4/11 8:22,2.4,15,2.6,15,3,15
2016/4/11 8:23,2.2,15,2.4,15,1.4,7
2016/4/11 8:24,2.3,15,2.3,15,2.2,13
2016/4/11 8:25,2.2,14,2.3,15,2,13
2016/4/11 8:26,2.3,14,2.4,15,5.5,14
2016/4/11 8:27,2.1,15,2.3,15,2,16
2016/4/11 8:28,1.9,15,2.1,15,2.7,2
2016/4/11 8:29,1.7,15,1.9,15,2.5,5
2016/4/11 8:30,1.6,15,1.7,15,2.1,5
2016/4/11 8:31,1.6,16,1.6,15,3.2,2
2016/4/11 8:32,1.5,16,1.5,15,3.1,16
2016/4/11 8:33,1.5,16,1.5,14,1,12
2016/4/11 8:34,1.5,1,1.5,14,3.3,3
2016/4/11 8:35,1.5,1,1.6,14,2.5,1
2016/4/11 8:36,1.3,2,1.5,14,1.5,3
2016/4/11 8:37,1.4,2,1.4,15,4.2,3
2016/4/11 8:38,1.4,3,1.4,15,3.1,3
2016/4/11 8:39,1.4,2,1.4,15,3,16
2016/4/11 8:40,1.4,1,1.4,15,3.5,15
2016/4/11 8:41,1.3,1,1.4,1,2.5,1
2016/4/11 8:42,1.3,2,1.3,1,3.7,16
2016/4/11 8:43,1.6,2,1.6,1,5,2
2016/4/11 8:44,1.6,1,1.6,1,4.2,12
2016/4/11 8:45,1.6,1,1.6,2,1.9,11
2016/4/11 8:46,1.6,15,1.7,16,2.5,14
2016/4/11 8:47,1.5,14,1.6,16,1.1,13
2016/4/11 8:48,1.4,14,1.5,16,1,4
2016/4/11 8:49,1.4,13,1.5,16,2.1,11
2016/4/11 8:50,1.3,12,1.4,16,1.8,10
2016/4/11 8:51,1.3,10,1.4,16,1.8,5
2016/4/11 8:52,1.4,10,1.4,16,3.8,1
2016/4/11 8:53,1.2,10,1.3,16,3.9,13
2016/4/11 8:54,1.1,9,1.2,16,2.2,7
2016/4/11 8:55,1.1,8,1.1,16,3.1,12
2016/4/11 8:56,1.2,5,1.2,15,3.5,15
2016/4/11 8:57,1.4,2,1.4,14,5.7,14
2016/4/11 8:58,1.8,16,1.8,16,9.1,14
2016/4/11 8:59,2.1,16,2.1,16,5,15
2016/4/11 9:00,2.3,16,2.3,16,7.1,15
2016/4/11 9:01,2.7,15,2.7,15,8.7,16
2016/4/11 9:02,2.8,15,2.8,15,6.2,15
2016/4/11 9:03,3.1,15,3.1,15,8.7,15
2016/4/11 9:04,3.5,15,3.5,15,7.6,15
2016/4/11 9:05,3.7,15,3.7,15,4.7,15
2016/4/11 9:06,3.6,15,3.6,15,3.3,16
2016/4/11 9:07,3.5,15,3.6,15,2.4,9
2016/4/11 9:08,3.1,14,3.4,15,2.2,13
2016/4/11 9:09,2.9,15,3.1,15,2.5,16
2016/4/11 9:10,2.9,14,2.9,15,7.2,14
2016/4/11 9:11,2.8,15,3,15,9.3,15
2016/4/11 9:12,2.7,15,2.8,15,4.1,3
2016/4/11 9:13,2.4,15,2.7,15,4.5,3
2016/4/11 9:14,2.1,15,2.4,15,2.9,6
2016/4/11 9:15,1.9,15,2.1,15,2,13
2016/4/11 9:16,1.9,16,1.9,15,2.5,16
2016/4/11 9:17,1.9,1,1.9,15,3,16
2016/4/11 9:18,2.1,1,2.1,14,4.3,16
2016/4/11 9:19,2.1,1,2.1,14,3.3,16
2016/4/11 9:20,2,1,2.1,14,5.4,3
2016/4/11 9:21,1.9,2,1.9,15,3.3,3
2016/4/11 9:22,1.8,1,1.9,15,2.7,15
2016/4/11 9:23,1.7,1,1.8,15,3.2,16
2016/4/11 9:24,1.7,2,1.7,15,3.1,3
2016/4/11 9:25,2,2,2,1,5.4,3
2016/4/11 9:26,2.1,2,2.1,1,3.3,2
2016/4/11 9:27,2.1,2,2.1,1,3.2,13
2016/4/11 9:28,1.9,2,2.1,1,2.2,14
2016/4/11 9:29,1.7,2,1.9,1,1.4,6
2016/4/11 9:30,1.7,2,1.8,2,2.6,9
2016/4/11 9:31,1.7,1,1.7,2,3,13
2016/4/11 9:32,1.7,15,1.7,2,1.9,14
2016/4/11 9:33,1.6,14,1.7,2,2,12
2016/4/11 9:34,1.6,14,1.6,2,4.2,15
2016/4/11 9:35,1.6,14,1.7,2,5.7,15
2016/4/11 9:36,1.7,14,1.7,2,4.8,16
2016/4/11 9:37,2,14,2,2,8.4,16
2016/4/11 9:38,2.5,14,2.5,14,10.6,15
2016/4/11 9:39,2.7,14,2.7,14,9.1,1
2016/4/11 9:40,2.8,15,2.8,14,4.9,16
2016/4/11 9:41,2.8,15,2.8,14,2.2,8
2016/4/11 9:42,2.8,16,2.8,14,2.1,1
2016/4/11 9:43,2.9,16,2.9,16,5,16
2016/4/11 9:44,3,16,3,16,7.1,1
2016/4/11 9:45,3,16,3.1,16,9.4,1
2016/4/11 9:46,3,16,3.1,16,4.8,3
2016/4/11 9:47,2.8,1,3,16,3.3,1
2016/4/11 9:48,2.3,1,2.8,16,2.2,16
2016/4/11 9:49,2.1,1,2.2,16,2.9,15
2016/4/11 9:50,2,1,2.1,16,2.7,1
2016/4/11 9:51,2.2,1,2.2,16,5.1,15
2016/4/11 9:52,2.2,16,2.2,16,3.8,15
2016/4/11 9:53,2.2,16,2.3,16,4.4,15
2016/4/11 9:54,2.4,16,2.4,16,9.3,15
2016/4/11 9:55,2.7,16,2.7,16,14.4,16
2016/4/11 9:56,2.6,15,2.7,1,5.7,14
2016/4/11 9:57,3.1,15,3.1,15,12.4,1
2016/4/11 9:58,3.7,15,3.7,15,11.4,16
2016/4/11 9:59,3.9,15,3.9,15,8.4,16
2016/4/11 10:00,3.9,15,3.9,15,4.7,16
2016/4/11 10:01,3.7,16,3.9,15,2.6,4
2016/4/11 10:02,3.8,16,3.8,15,4.4,1
2016/4/11 10:03,3.7,16,3.8,15,2.4,13
2016/4/11 10:04,3.5,1,3.7,15,6,5
2016/4/11 10:05,3.1,1,3.5,15,4.1,14
2016/4/11 10:06,3.1,1,3.1,15,5.4,15
2016/4/11 10:07,3,1,3.2,15,11.9,14
2016/4/11 10:08,2.9,1,3,15,9.8,15
2016/4/11 10:09,3.2,1,3.2,15,11.5,15
2016/4/11 10:10,3.5,1,3.5,15,10.9,16
2016/4/11 10:11,3.8,16,3.8,16,8.1,16
2016/4/11 10:12,4.1,16,4.1,16,10.7,16
2016/4/11 10:13,4.5,16,4.5,16,7.6,15
2016/4/11 10:14,4.7,15,4.7,16,8.2,15
2016/4/11 10:15,5,15,5,15,10.6,16
2016/4/11 10:16,5.4,16,5.4,16,11.3,15
2016/4/11 10:17,5.2,16,5.4,16,6.8,16
2016/4/11 10:18,4.9,16,5.1,16,7.1,15
2016/4/11 10:19,4.6,16,5,16,5.2,13
2016/4/11 10:20,4.4,16,4.6,16,8.7,16
2016/4/11 10:21,4.9,16,4.9,16,12.1,16
2016/4/11 10:22,4.8,16,5.1,16,11.8,16
2016/4/11 10:23,4.6,16,4.7,16,10.3,16
2016/4/11 10:24,4.4,16,4.6,16,5.2,15
2016/4/11 10:25,4.5,16,4.5,16,10.1,14
2016/4/11 10:26,4.5,16,4.5,16,10.3,15
2016/4/11 10:27,4.7,16,4.7,16,9.1,16
2016/4/11 10:28,5,16,5,16,10.2,15
2016/4/11 10:29,5.4,16,5.4,16,11,1
2016/4/11 10:30,5.6,16,5.7,16,13.5,15
2016/4/11 10:31,5.6,16,5.7,16,13.6,15
2016/4/11 10:32,5.7,16,5.7,16,10.8,16
2016/4/11 10:33,5.9,15,5.9,16,10,15
2016/4/11 10:34,6,15,6,15,5.4,16
2016/4/11 10:35,5.9,16,6,15,9.3,15
2016/4/11 10:36,5.8,15,5.9,15,10.5,15
2016/4/11 10:37,5.7,15,5.8,15,12.4,15
2016/4/11 10:38,5.6,15,5.7,15,11.7,12
2016/4/11 10:39,5.5,15,5.6,15,9.5,15
2016/4/11 10:40,5.2,15,5.5,15,8.3,15
2016/4/11 10:41,4.7,15,5.1,15,7.8,16
2016/4/11 10:42,4.7,15,4.7,15,9.9,15
2016/4/11 10:43,4.7,15,4.7,15,12.8,15
2016/4/11 10:44,5,15,5,15,8.7,15
2016/4/11 10:45,4.8,15,4.9,16,8.2,16
2016/4/11 10:46,4.6,15,4.9,15,10.8,14
2016/4/11 10:47,4.7,15,4.7,15,8.5,1
2016/4/11 10:48,4.7,16,4.8,15,8.5,16
2016/4/11 10:49,4.7,16,4.7,15,7.4,15
2016/4/11 10:50,4.8,16,4.8,15,8.5,16
2016/4/11 10:51,5,16,5.1,16,9.2,14
2016/4/11 10:52,4.7,16,5,16,6.9,15
2016/4/11 10:53,4.5,16,4.7,16,6.8,15
2016/4/11 10:54,4.3,16,4.5,16,6.4,15
2016/4/11 10:55,4.1,16,4.3,16,5.7,4
2016/4/11 10:56,3.9,1,4.1,16,3,2
2016/4/11 10:57,3.5,16,3.9,16,3.8,13
2016/4/11 10:58,3.5,16,3.5,16,11.4,15
2016/4/11 10:59,3.7,16,3.7,16,9.8,15
2016/4/11 11:00,3.7,16,3.7,16,8.5,15
2016/4/11 11:01,3.7,16,3.8,16,10.3,14
2016/4/11 11:02,4.1,16,4.1,16,9.9,16
2016/4/11 11:03,4.3,16,4.3,16,9.5,15
2016/4/11 11:04,4.6,16,4.6,16,11.1,15
2016/4/11 11:05,4.9,15,4.9,16,11.3,16